Tracking 27380 objects as of 6-Jun-2023
HD Live streaming from Space Station
objects crossing your sky now

CZ-4 DEB

Track CZ-4 DEB now!
10-day predictions


NORAD ID: 20884
Int'l Code: 1990-081AU
Perigee: 818.0 km
Apogee: 858.0 km
Inclination: 98.5 °
Period: 101.5 minutes
Semi major axis: 7209 km
RCS: 0.0546 m2 (small)
Launch date: September 3, 1990
Source: People's Republic of China (PRC)
Launch site: Taiyaun Space Center, China (TSC)

Note: This is SATELLITE DEBRIS
Your satellite tracking list
Your tracking list is empty




NASA's NSSDC Master Catalog

Two Line Element Set (TLE):
1 20884U 90081AU  23156.63038361  .00001657  00000-0  82073-3 0  9999
2 20884  98.5435 186.5411 0027784 247.4871 112.3363 14.18369290498097
Source of the keplerian elements: AFSPC